Tillbaka till svenska Fidonet
English   Information   Debug  
FILM   0/18
FNEWS_PUBLISH   4983
FN_SYSOP   42232
FN_SYSOP_OLD1   71952
FTP_FIDO   0/2
FTSC_PUBLIC   0/13976
FUNNY   0/4886
GENEALOGY.EUR   0/71
GET_INFO   105
GOLDED   99/408
HAM   778/16711
HOLYSMOKE   0/6791
HOT_SITES   0/1
HTMLEDIT   0/71
HUB203   466
HUB_100   264
HUB_400   39
HUMOR   0/29
IC   0/2851
INTERNET   0/424
INTERUSER   0/3
IP_CONNECT   719
JAMNNTPD   0/233
JAMTLAND   0/47
KATTY_KORNER   0/41
LAN   0/16
LINUX-USER   0/19
LINUXHELP   0/1155
LINUX   0/22382
LINUX_BBS   0/957
mail   18.68
mail_fore_ok   249
MENSA   0/341
MODERATOR   0/102
MONTE   0/992
MOSCOW_OKLAHOMA   0/1245
MUFFIN   0/783
MUSIC   0/321
N203_STAT   938
N203_SYSCHAT   313
NET203   321
NET204   69
NET_DEV   0/10
NORD.ADMIN   0/101
NORD.CHAT   0/2572
NORD.FIDONET   189
NORD.HARDWARE   0/28
NORD.KULTUR   0/114
NORD.PROG   0/32
NORD.SOFTWARE   0/88
NORD.TEKNIK   0/58
NORD   0/453
OCCULT_CHAT   0/93
OS2BBS   0/787
OS2DOSBBS   0/580
OS2HW   0/42
OS2INET   0/37
OS2LAN   0/134
OS2PROG   0/36
OS2REXX   0/113
OS2USER-L   207
OS2   0/4831
OSDEBATE   0/18996
PASCAL   0/490
PERL   0/457
PHP   0/45
POINTS   0/405
POLITICS   0/29554
POL_INC   0/14731
PSION   103
R20_ADMIN   1133
R20_AMATORRADIO   0/2
R20_BEST_OF_FIDONET   16
R20_CHAT   0/897
R20_DEPP   0/3
R20_DEV   400
R20_ECHO2   1888
R20_ECHOPRES   0/35
R20_ESTAT   0/719
R20_FIDONETPROG...
...RAM.MYPOINT
  0/2
R20_FIDONETPROGRAM   0/22
R20_FIDONET   0/248
R20_FILEFIND   0/24
R20_FILEFOUND   0/22
R20_HIFI   0/3
R20_INFO2   3781
R20_INTERNET   0/12940
R20_INTRESSE   0/60
R20_INTR_KOM   0/99
R20_KANDIDAT.CHAT   42
R20_KANDIDAT   28
R20_KOM_DEV   112
R20_KONTROLL   0/13360
R20_KORSET   0/18
R20_LOKALTRAFIK   0/24
R20_MODERATOR   0/1852
R20_NC   76
R20_NET200   245
R20_NETWORK.OTH...
...ERNETS
  0/13
R20_OPERATIVSYS...
...TEM.LINUX
  0/44
R20_PROGRAMVAROR   0/1
R20_REC2NEC   534
R20_SFOSM   0/341
R20_SF   0/108
R20_SPRAK.ENGLISH   0/1
R20_SQUISH   107
R20_TEST   2
R20_WORST_OF_FIDONET   20
RAR   0/9
RA_MULTI   106
RA_UTIL   0/162
REGCON.EUR   0/2069
REGCON   0/13
SCIENCE   0/1206
SF   0/239
SHAREWARE_SUPPORT   0/5146
SHAREWRE   0/14
SIMPSONS   0/169
STATS_OLD1   0/2539.065
STATS_OLD2   0/2530
STATS_OLD3   0/2395.095
STATS_OLD4   0/1692.25
SURVIVOR   0/495
SYSOPS_CORNER   0/3
SYSOP   44/84
TAGLINES   0/112
TEAMOS2   0/4530
TECH   0/2617
TEST.444   0/105
TRAPDOOR   0/19
TREK   0/755
TUB   0/290
UFO   0/40
UNIX   0/1316
USA_EURLINK   0/102
USR_MODEMS   0/1
VATICAN   0/2740
VIETNAM_VETS   0/14
VIRUS   0/378
VIRUS_INFO   0/201
VISUAL_BASIC   0/473
WHITEHOUSE   0/5187
WIN2000   0/101
WIN32   0/30
WIN95   0/4291
WIN95_OLD1   0/70272
WINDOWS   0/1517
WWB_SYSOP   0/419
WWB_TECH   732/810
ZCC-PUBLIC   0/1
ZEC   4

 
4DOS   0/134
ABORTION   0/7
ALASKA_CHAT   0/506
ALLFIX_FILE   0/1313
ALLFIX_FILE_OLD1   0/7997
ALT_DOS   0/152
AMATEUR_RADIO   0/1039
AMIGASALE   0/14
AMIGA   0/331
AMIGA_INT   0/1
AMIGA_PROG   0/20
AMIGA_SYSOP   0/26
ANIME   0/15
ARGUS   0/924
ASCII_ART   0/340
ASIAN_LINK   0/651
ASTRONOMY   0/417
AUDIO   0/92
AUTOMOBILE_RACING   0/105
BABYLON5   0/17862
BAG   135
BATPOWER   0/361
BBBS.ENGLISH   0/382
BBSLAW   0/109
BBS_ADS   0/5290
BBS_INTERNET   0/507
BIBLE   0/3563
BINKD   0/1119
BINKLEY   0/215
BLUEWAVE   0/2173
CABLE_MODEMS   0/25
CBM   0/46
CDRECORD   0/66
CDROM   0/20
CLASSIC_COMPUTER   0/378
COMICS   0/15
CONSPRCY   0/899
COOKING   42002
COOKING_OLD1   0/24719
COOKING_OLD2   0/40862
COOKING_OLD3   0/37489
COOKING_OLD4   14591/35496
COOKING_OLD5   9370
C_ECHO   0/189
C_PLUSPLUS   0/31
DIRTY_DOZEN   0/201
DOORGAMES   1536/2333
DOS_INTERNET   0/196
duplikat   6102
ECHOLIST   11579/18295
EC_SUPPORT   0/318
ELECTRONICS   0/359
ELEKTRONIK.GER   1534
ENET.LINGUISTIC   0/13
ENET.POLITICS   0/4
ENET.SOFT   0/11701
ENET.SYSOP   34332
ENET.TALKS   0/32
ENGLISH_TUTOR   0/2000
EVOLUTION   0/1335
FDECHO   0/217
FDN_ANNOUNCE   215/7068
FIDONEWS   25122
FIDONEWS_OLD1   0/49742
FIDONEWS_OLD2   0/35949
FIDONEWS_OLD3   0/30874
FIDONEWS_OLD4   0/37224
FIDO_SYSOP   12973
FIDO_UTIL   0/180
FILEFIND   0/209
FILEGATE   0/212
Möte HAM, 16711 texter
 lista första sista föregående nästa
Text 1111, 767 rader
Skriven 2006-07-14 03:00:21 av Amsat List (1:323/120.0)
Ärende: [keps] orb06194.amsa
============================
[keps] orb06194.amsa


SB KEPS @ AMSAT  $ORB06194.O
Orbital Elements  06194.OSCAR

HR AMSAT ORBITAL ELEMENTS FOR OSCAR SATELLITES
FROM WA5QGD FORT WORTH,TX July 13, 2006
Send SUBSCRIBE KEPS/UNSUBSCRIBE KEPS to majordomo@amsat.org only
BID: ORB06194.O
TO ALL RADIO AMATEURS BT

Satellite: AO-07
Catalog number: 07530
Epoch time:      06193.72461558
Element set:     627
Inclination:      101.5658 deg
RA of node:       236.0155 deg
Eccentricity:    0.0011915
Arg of perigee:   195.6462 deg
Mean anomaly:     164.4238 deg
Mean motion:   12.53571525 rev/day
Decay rate:       -2.8e-07 rev/day^2
Epoch rev:           44858
Checksum:              307

Satellite: AO-10
Catalog number: 14129
Epoch time:      06190.63037999
Element set:    0294
Inclination:      027.3919 deg
RA of node:       326.2509 deg
Eccentricity:    0.6033168
Arg of perigee:   299.8421 deg
Mean anomaly:     013.7830 deg
Mean motion:   02.05864470 rev/day
Decay rate:       1.55e-06 rev/day^2
Epoch rev:           17351
Checksum:              311

Satellite: UO-11
Catalog number: 14781
Epoch time:      06193.61450169
Element set:    0122
Inclination:      098.2050 deg
RA of node:       204.3701 deg
Eccentricity:    0.0008935
Arg of perigee:   177.6247 deg
Mean anomaly:     182.5001 deg
Mean motion:   14.79443016 rev/day
Decay rate:       3.89e-06 rev/day^2
Epoch rev:           19952
Checksum:              291

Satellite: RS-10/11
Catalog number: 18129
Epoch time:      06194.78833626
Element set:      39
Inclination:      082.9255 deg
RA of node:       308.4800 deg
Eccentricity:    0.0012725
Arg of perigee:   026.1154 deg
Mean anomaly:     334.0643 deg
Mean motion:   13.72776180 rev/day
Decay rate:        1.3e-07 rev/day^2
Epoch rev:           95480
Checksum:              295

Satellite: RS-15
Catalog number: 23439
Epoch time:      06193.91402134
Element set:    0961
Inclination:      064.8139 deg
RA of node:       195.6153 deg
Eccentricity:    0.0167414
Arg of perigee:   249.5984 deg
Mean anomaly:     108.6891 deg
Mean motion:   11.27552469 rev/day
Decay rate:       -3.9e-07 rev/day^2
Epoch rev:           47544
Checksum:              334

Satellite: FO-29
Catalog number: 24278
Epoch time:      06193.53590088
Element set:    0271
Inclination:      098.5086 deg
RA of node:       194.5573 deg
Eccentricity:    0.0349753
Arg of perigee:   243.9824 deg
Mean anomaly:     112.4912 deg
Mean motion:   13.52922277 rev/day
Decay rate:       -1.8e-07 rev/day^2
Epoch rev:           48897
Checksum:              351

Satellite: SO-33
Catalog number: 25509
Epoch time:      06193.74924271
Element set:    0698
Inclination:      031.4367 deg
RA of node:       344.7836 deg
Eccentricity:    0.0355094
Arg of perigee:   339.9806 deg
Mean anomaly:     018.7099 deg
Mean motion:   14.28112714 rev/day
Decay rate:       1.58e-06 rev/day^2
Epoch rev:           40269
Checksum:              338

Satellite: AO-40
Catalog number: 26609
Epoch time:      06194.51622975
Element set:     750
Inclination:      006.3881 deg
RA of node:       231.8412 deg
Eccentricity:    0.7951725
Arg of perigee:   180.0193 deg
Mean anomaly:     178.6823 deg
Mean motion:   01.25583753 rev/day
Decay rate:      .00000000 rev/day^2
Epoch rev:            2618
Checksum:              295

Satellite: VO-52
Catalog number: 28650
Epoch time:      06194.67121275
Element set:     376
Inclination:      097.8705 deg
RA of node:       267.2347 deg
Eccentricity:    0.0026182
Arg of perigee:   275.9746 deg
Mean anomaly:     083.8473 deg
Mean motion:   14.81141553 rev/day
Decay rate:       -2.5e-07 rev/day^2
Epoch rev:            6430
Checksum:              319

/EX
SB KEPS @ AMSAT  $ORB06194.D
Orbital Elements  06194.MICROS

HR AMSAT ORBITAL ELEMENTS FOR THE MICROSATS
FROM WA5QGD FORT WORTH,TX July 13, 2006
Send SUBSCRIBE KEPS/UNSUBSCRIBE KEPS to majordomo@amsat.org only
BID: ORB06194.D
TO ALL RADIO AMATEURS BT

Satellite: AO-16
Catalog number: 20439
Epoch time:      06193.65795774
Element set:    0794
Inclination:      098.1854 deg
RA of node:       202.1671 deg
Eccentricity:    0.0011775
Arg of perigee:   115.5298 deg
Mean anomaly:     244.7107 deg
Mean motion:   14.31727085 rev/day
Decay rate:        2.1e-07 rev/day^2
Epoch rev:           85996
Checksum:              334

Satellite: WO-18
Catalog number: 20441
Epoch time:      06194.76123696
Element set:     993
Inclination:      098.1855 deg
RA of node:       207.8295 deg
Eccentricity:    0.0012551
Arg of perigee:   113.2170 deg
Mean anomaly:     247.0342 deg
Mean motion:   14.31797350 rev/day
Decay rate:        1.1e-07 rev/day^2
Epoch rev:           86018
Checksum:              297

Satellite: LO-19
Catalog number: 20442
Epoch time:      06194.66202142
Element set:     731
Inclination:      098.1862 deg
RA of node:       212.6040 deg
Eccentricity:    0.0012847
Arg of perigee:   113.0230 deg
Mean anomaly:     247.2318 deg
Mean motion:   14.31969947 rev/day
Decay rate:       -3.4e-07 rev/day^2
Epoch rev:           86024
Checksum:              276

Satellite: UO-22
Catalog number: 21575
Epoch time:      06193.41960922
Element set:    0748
Inclination:      098.2972 deg
RA of node:       150.3339 deg
Eccentricity:    0.0007540
Arg of perigee:   003.0620 deg
Mean anomaly:     357.0606 deg
Mean motion:   14.39554826 rev/day
Decay rate:       -3.1e-07 rev/day^2
Epoch rev:           78664
Checksum:              304

Satellite: KO-23
Catalog number: 22077
Epoch time:      06193.87312959
Element set:    0842
Inclination:      066.0851 deg
RA of node:       048.2549 deg
Eccentricity:    0.0002407
Arg of perigee:   356.6813 deg
Mean anomaly:     003.4173 deg
Mean motion:   12.86437108 rev/day
Decay rate:       -3.7e-07 rev/day^2
Epoch rev:           65384
Checksum:              309

